"Pseudo-MPEC" for TA29DCF = 2011-037B = Spektr-R booster

Created 2014 Dec 30 1:09:51 UT using Find_Orb

You can get customized ephemerides for this object from the Minor Planet Center's Distant Artificial Satellites Observation page.

There is an updated page with more recent observations available. As of early 2017, and confirmed by subsequent observations in early 2018, it looks as if this object will re-enter the atmosphere in August 2021. Click here for a plot of the inclination and perigee distance vs. time over the lifespan of this object. It'll be an interesting re-entry, coming in at a steep angle resembling that of WT1190F in November 2015. It won't resemble usual re-entering space junk, which tends to come in at a shallow, unpredictable angle at orbital, not escape, speed.

You can also get TLEs (Two-Line Elements) for this object (and many other objects described on these pages.)

Mike McCants points out that this object is almost certainly the booster for the Spektr-R radio-astronomy telescope. If you compute orbits for epoch 2011 July 18 (launch date for Spektr-R) for both objects, the match is almost exact, except that TA29DCF has a slightly higher apogee.

Orbital elements:  TA29DCF = 2011-037B
   Perigee 2011 Jul 18.237971 +/- 0.00161 TT =  5:42:40 (JD 2455760.737971)
Epoch 2011 Jul 18.0 TT; AMR 0.0097301 +/- 0.000236 m^2/kg     Find_Orb
M 349.79674 +/- 0.06
n  42.87602464 +/- 0.000735         Peri.  301.97448 +/- 0.015
a174499.356 +/- 2                   Node   342.24845 +/- 0.019
e   0.9600582 +/- 2.72e-6           Incl.   51.52172 +/- 0.010
P   8.40d                  H 29.1   G  0.15   U  7.9
q 6969.80533 +/- 0.398    Q 342028.908 +/- 4.37
71 of 74 observations 2012 Jan. 13-Apr. 15; mean residual 0".756.

Orbital elements:  2011-037A = Spektr-R = NORAD 37755
   Perigee 2011 Jul 18.244952 +/- 0.000121 TT =  5:52:43 (JD 2455760.744952)
Epoch 2011 Jul 18.0 TT; AMR 0.041752 +/- 0.000320 m^2/kg      Find_Orb
M 349.42579 +/- 0.0052
n  43.16855563 +/- 6.37e-5          Peri.  301.89731 +/- 0.0011
a173710.135 +/- 0.171               Node   342.23853 +/- 0.0014
e   0.9600235 +/- 3.07e-6           Incl.   51.53231 +/- 0.0007
P   8.34d                  H 26.0   G  0.15   U  6.3
q 6944.31692 +/- 0.535    Q 340475.954 +/- 0.513
179 of 8001 observations 2011 Oct. 15-Dec. 8; mean residual 1".680.

Since then, the orbits of both objects have evolved quite a bit, mostly due to lunar perturbations raising the perigee distance. In the case of Spektr-R, this has been carefully maintained; but TA29DCF has changed a lot, and should lead eventually to the impact in August 2021 mentioned above.

Astrometry:
TA29DCF       C2012 01 13.24414 07 21 17.71 +49 19 47.5         x16.7 V D0407703
TA29DCF       C2012 01 13.24927 07 21 09.57 +49 17 06.0         x16.2 V D0407703
TA29DCF       C2012 01 13.25963 07 20 52.87 +49 11 33.6         x16.2 V D0407703
TA29DCF       C2012 01 13.30968 07 19 28.99 +48 41 56.1         x16.4 V D0407703
TA29DCF       C2012 01 13.31014 07 19 28.20 +48 41 38.0         x16.1 V D0407703
TA29DCF       C2012 01 13.31056 07 19 27.48 +48 41 21.5         x16.5 V D0407703
TA29DCF      KC2012 01 13.32732 07 20 16.66 +48 23 46.6         x16.8 R D0407G56
TA29DCF      KC2012 01 13.32872 07 20 14.53 +48 22 56.1         x16.2 R D0407G56
TA29DCF      KC2012 01 13.33011 07 20 12.40 +48 22 04.4         x16.5 R D0407G56
TA29DCF      KC2012 01 13.33215 07 20 09.33 +48 20 49.9         x15.9 R D0407G56
TA29DCF      KC2012 01 13.33354 07 20 07.22 +48 19 57.1         x16.7 R D0407G56
TA29DCF      KC2012 01 13.33608 07 20 03.40 +48 18 22.2         x16.0 R D0407G56
TA29DCF      KC2012 01 13.33666 07 20 02.51 +48 18 00.3         x16.1 R D0407G56
TA29DCF      KC2012 01 13.33749 07 20 01.29 +48 17 29.2         x15.5 R D0407G56
TA29DCF       C2012 01 13.34241 07 18 36.23 +48 20 12.4         x16.3 R D0407854
TA29DCF       C2012 01 13.34270 07 18 35.77 +48 20 00.1         x16.2 R D0407854
TA29DCF       C2012 01 13.34299 07 18 35.31 +48 19 48.1         x16.1 R D0407854
TA29DCF       C2012 01 13.43853 07 16 41.70 +47 05 54.4         x16.9 V D0407703
TA29DCF       C2012 01 13.43893 07 16 41.44 +47 05 34.1         x16.6 V D0407703
TA29DCF       C2012 01 13.43934 07 16 41.12 +47 05 14.1         x16.4 V D0407703
TA29DCF       C2012 01 13.43973 07 16 40.87 +47 04 54.5         x16.1 V D0407703
TA29DCF      KC2012 01 13.75044507 29 16.56 +43 18 58.0         x16.0 R D0407J95
TA29DCF      KC2012 01 13.75195607 29 17.47 +43 18 23.8         x16.1 R D0407J95
TA29DCF      KC2012 01 13.75341607 29 18.35 +43 17 50.5         x16.3 R D0407J95
TA29DCF       C2012 01 13.77543 07 29 20.06 +43 05 41.3         x16.1 V D0407J41
TA29DCF       C2012 01 13.77622 07 29 20.51 +43 05 22.7         x16.2 V D0407J41
TA29DCF       C2012 01 13.77700 07 29 20.90 +43 05 04.7         x16.5 V D0407J41
TA29DCF       C2012 01 13.77781 07 29 21.25 +43 04 45.5         x16.4 V D0407J41
TA29DCF       C2012 01 13.77861 07 29 21.69 +43 04 26.6         x16.1 V D0407J41
TA29DCF       C2012 01 13.77940 07 29 22.01 +43 04 08.6         x16.6 V D0407J41
TA29DCF       C2012 01 13.78019 07 29 22.35 +43 03 50.3         x16.2 V D0407J41
TA29DCF      KC2012 01 13.80721 07 29 46.14 +43 07 03.7         x16.6 R D0407B04
TA29DCF      KC2012 01 13.81132 07 29 44.96 +43 05 28.7         x16.3 R D0407B04
TA29DCF      KC2012 01 13.81540 07 29 43.60 +43 03 53.5         x16.5 R D0407B04
TA29DCF      KC2012 01 14.78841407 37 58.63 +33 33 55.2         x16.0 R D0407J95
TA29DCF      KC2012 01 14.79158107 37 59.17 +33 32 35.3         x16.5 R D0407J95
TA29DCF      KC2012 01 14.79532807 37 59.71 +33 31 00.2         x16.2 R D0407J95
TA29DCF      KC2012 01 14.79892507 38 00.11 +33 29 28.9         x16.1 R D0407J95
TA29DCF      KC2012 01 24.11171407 39 19.08 +23 06 17.5         x16.2 R D0407J95
TA29DCF      KC2012 01 24.11283807 39 18.53 +23 05 25.9         x16.3 R D0407J95
TA29DCF      KC2012 01 24.11422707 39 17.87 +23 04 21.5         x16.5 R D0407J95
TA29DCF      KC2012 01 24.11576807 39 17.13 +23 03 10.2         x16.4 R D0407J95
TA29DCF      KC2012 01 24.11700907 39 16.54 +23 02 13.0         x16.4 R D0407J95
TA29DCF      KC2012 01 24.11941 07 38 31.28 +23 03 23.8         x       D0407204
TA29DCF      KC2012 01 24.12065 07 38 30.90 +23 02 24.4         x       D0407204
TA29DCF       C2012 01 24.12159007 45 08.99 +23 14 45.7         x15.7 R D0407H36
TA29DCF      KC2012 01 24.12239 07 38 30.35 +23 01 00.9         x16.8 R D0407204
TA29DCF       C2012 01 24.12264807 45 08.19 +23 14 09.3         x16.0 R D0407H36
TA29DCF       C2012 01 24.12359807 45 07.47 +23 13 36.7         x16.1 R D0407H36
TA29DCF      KC2012 01 24.12388 07 38 29.91 +22 59 49.6         x       D0407204
TA29DCF       C2012 01 24.12457607 45 06.73 +23 13 03.0         x16.4 R D0407H36
TA29DCF       C2012 01 24.12554807 45 05.98 +23 12 29.7         x16.1 R D0407H36
TA29DCF      KC2012 01 24.12691 07 38 29.08 +22 57 24.5         x       D0407204
TA29DCF      KC2012 01 24.19696307 43 18.42 +22 28 44.0         x16.5 V D0408H21
TA29DCF      KC2012 01 24.19893407 43 16.00 +22 27 24.6         x16.1 V D0408H21
TA29DCF      KC2012 01 24.20095707 43 13.53 +22 26 03.1         x15.8 V D0408H21
TA29DCF      KC2012 01 24.20355807 43 10.33 +22 24 17.3         x16.5 V D0408H21
TA29DCF      KC2012 01 24.20614907 43 07.11 +22 22 31.6         x16.5 V D0408H21
TA29DCF       C2012 02 02.28934 07 48 44.05 +12 03 47.9         x       D0409G96
TA29DCF       C2012 02 02.29685 07 48 33.10 +11 56 33.7         x       D0409G96
TA29DCF       C2012 02 02.36292 07 47 05.31 +10 50 26.4         x16.4 V D0409G96
TA29DCF       C2012 02 02.36321 07 47 04.95 +10 50 08.4         x16.2 V D0409G96
TA29DCF       C2012 02 02.36348 07 47 04.66 +10 49 51.7         x16.2 V D0409G96
TA29DCF       C2012 02 02.36377 07 47 04.34 +10 49 34.0         x16.0 V D0409G96
TA29DCF      KC2012 03 04.90485107 30 55.64 +34 20 56.4         x16.6 R D0418J95
TA29DCF      KC2012 03 04.90679607 30 54.30 +34 19 36.5         x16.5 R D0418J95
TA29DCF      KC2012 03 04.90876407 30 52.94 +34 18 15.3         x16.5 R D0418J95
TA29DCF      KC2012 04 15.95239605 56 54.45 +62 51 07.9         x17.7 R D0424J95
TA29DCF      KC2012 04 15.95466805 57 08.67 +62 48 04.5         x17.4 R D0424J95
TA29DCF      KC2012 04 15.95693605 57 22.78 +62 45 00.8         x16.9 R D0424J95
TA29DCF      KC2012 04 15.95970605 57 40.18 +62 41 17.1         x17.0 R D0424J95
TA29DCF       C2013 11 13.16943 08 25 05.40 -07 50 50.7          14.9 V D0497J75
TA29DCF       C2013 11 13.17314 08 25 07.60 -07 51 03.0          14.9 V D0497J75
TA29DCF       C2013 11 13.17683 08 25 09.73 -07 51 15.0          14.8 V D0497J75
TA29DCF      KC2013 11 15.01177105 57 02.78 -07 25 44.4          15.1 R D0497J95
TA29DCF      KC2013 11 15.01446705 57 07.72 -07 25 45.4          15.1 R D0497J95
TA29DCF      KC2013 11 15.01715205 57 12.56 -07 25 46.3          15.1 R D0497J95
TA29DCF       C2013 11 15.01738 05 58 04.39 -07 06 15.1          14.8 V D0497J75
TA29DCF       C2013 11 15.02071 05 58 08.77 -07 06 20.3          14.6 V D0497J75
TA29DCF       C2013 11 15.02404 05 58 12.92 -07 06 25.9          14.8 V D0497J75
TA29DCF      KC2013 11 15.02576505 57 27.69 -07 25 48.1          15.1 R D0497J95
TA29DCF      KC2013 11 19.02808207 25 03.52 -05 54 19.8          16.9 V D0497K91
TA29DCF      KC2013 11 19.03322107 25 01.48 -05 54 23.7          16.5 V D0497K91
TA29DCF      KC2013 11 19.03837607 24 59.34 -05 54 27.4          16.7 V D0497K91
TA29DCF      KC2013 11 19.04353407 24 57.13 -05 54 30.6          16.7 V D0497K91
TA29DCF      KC2013 11 19.04870407 24 54.84 -05 54 33.6          16.8 V D0497K91
TA29DCF      KC2013 11 19.08676 07 25 38.90 -07 19 21.9          16.5 R D0497J95
TA29DCF      KC2013 11 19.08867 07 25 38.85 -07 19 24.0          16.3 R D0497J95
TA29DCF      KC2013 11 19.09054 07 25 38.78 -07 19 25.6          16.6 R D0497J95
TA29DCF      KC2013 11 19.09251 07 25 38.69 -07 19 27.6          16.7 R D0497J95
